CAPE
3781 3719 3786 3653 3750 3805 3148 2078 1558 1894 2256 2479 2284 2109 1945 1918 1624 1647 1564 1127 1220 1181 960 775 635 1025 1200 1403 1819 1657 1992 1645 1164 1167 1204 441 123 26 3 14 19 35 30
3714 3880 3764 3815 3872 3414 2320 1665 1560 2139 2544 2541 2109 1901 1713 1634 1674 1599 1366 1065 1083 933 937 819 764 601 1079 1797 1311 1248 1285 1412 962 812 715 155 91 3 4 0 38 64 29
3765 3813 3736 3772 3318 2396 1596 1461 1651 2448 2638 1992 1769 1631 1512 1509 1584 1549 1312 1016 891 733 755 914 950 931 1405 1042 1081 1035 1067 1103 883 916 345 200 213 27 29 52 37 15 3
3516 3621 3585 3387 2582 1953 1735 1233 1809 2738 2465 1853 1649 1499 1463 1386 1365 1295 1256 1285 1221 1059 1036 957 951 911 903 945 943 1069 904 857 756 740 188 207 290 195 194 41 6 19 14
2768 2739 2098 2025 1830 1861 2133 2886 3057 2764 2115 1827 1575 1462 1360 1276 1176 1344 1286 1310 1281 1112 960 973 862 664 438 533 745 854 680 677 387 294 270 230 355 265 214 38 20 25 37
1914 2457 2538 2522 2372 2544 2917 3256 3024 2624 2234 2012 1610 1325 1233 1049 490 455 736 1127 949 887 849 772 665 370 301 127 34 47 256 765 529 235 44 133 184 170 243 62 27 44 16
1829 2546 2891 2699 2397 2465 2823 3043 2959 2743 2444 2178 1813 1574 1321 1276 460 164 237 894 913 889 856 754 586 279 216 266 5 0 87 95 122 373 410 279 69 128 214 111 7 86 8
1590 2472 2719 2761 2451 2736 2849 2796 3100 2908 2630 2383 2142 1936 1731 1498 795 447 144 665 844 807 739 594 685 429 231 55 128 311 207 328 147 131 365 411 295 110 118 194 141 105 60
285 530 2582 2649 2566 2949 3048 3196 3237 2962 2872 2726 2455 2119 2044 2092 1067 585 251 513 520 555 556 691 686 539 187 0 174 293 146 230 36 0 24 30 7 15 127 150 151 78 30
263 523 1296 2477 2350 2596 2714 2241 2563 2586 2448 2370 2314 2189 1801 2064 1472 972 471 648 650 568 748 829 296 246 191 51 79 578 335 239 171 9 1 0 0 1 6 10 44 105 116
89 18 261 722 850 998 1191 1369 1544 1700 1533 1554 1695 1681 1494 1311 1362 739 698 516 747 1257 796 571 485 152 88 85 0 444 569 218 191 319 116 25 36 28 19 28 7 16 9
0 0 0 81 101 295 682 957 764 754 759 865 1072 934 878 1052 400 255 100 102 240 753 952 839 729 93 57 56 10 21 134 61 435 156 150 92 68 41 30 29 171 81 52
7 1 13 39 55 123 164 145 230 342 312 233 231 317 463 299 371 127 91 61 63 11 178 245 279 164 168 44 8 14 47 131 103 127 232 160 116 113 258 106 43 86 91
12 19 17 13 24 13 2 4 6 12 47 119 71 32 43 84 111 261 312 190 39 1 0 0 0 94 98 65 21 25 28 237 225 241 355 380 354 88 111 80 72 54 32
0 0 2 1 3 5 13 4 6 6 0 1 2 1 0 3 4 17 25 5 100 0 0 0 0 10 15 121 175 125 117 454 736 909 1253 951 134 67 112 152 105 75 31
59 8 0 0 1 4 5 4 0 0 0 0 0 0 0 0 2 6 14 1 1 6 20 0 0 0 47 54 149 350 432 261 857 489 176 131 65 49 50 127 309 239 164
3 3 1 0 0 0 6 17 5 2 0 0 0 0 0 0 0 0 1 11 45 31 3 10 23 13 41 42 41 54 98 84 55 87 75 42 58 68 51 28 26 61 31
7 0 0 1 0 0 0 1 18 40 64 28 3 0 0 0 0 0 1 11 14 88 97 109 115 73 24 44 42 50 68 43 59 21 11 11 51 55 38 42 32 8 26
10 5 3 0 0 0 0 0 5 51 84 76 38 16 6 0 2 0 4 30 81 26 0 50 61 53 64 19 22 50 37 10 40 41 22 52 7 3 4 9 5 5 0
5 0 0 0 0 0 0 1 3 18 44 108 64 19 11 25 39 22 0 3 73 69 113 125 43 72 106 31 13 51 40 15 10 30 13 13 25 12 15 0 0 0 0
3 3 0 0 0 5 4 4 3 11 69 102 115 2 0 1 15 0 0 6 1 1 106 49 10 8 0 4 8 12 6 1 12 2 9 9 0 0 2 1 0 0 0
22 17 18 25 31 22 20 14 13 22 169 134 88 3 1 4 13 3 6 9 3 0 1 2 1 0 2 2 4 2 3 0 20 37 47 39 18 0 0 0 0 0 0
30 30 17 18 50 13 32 37 82 188 243 145 111 26 80 3 3 4 6 6 7 2 0 0 2 0 7 1 0 0 0 18 37 11 2 0 0 11 15 24 23 0 0
28 35 48 78 33 64 75 49 191 86 288 208 149 115 16 1 7 3 0 0 1 1 0 6 9 1 0 0 3 6 3 0 32 37 27 26 21 3 10 3 0 0 0
81 179 232 31 10 145 260 154 170 305 263 323 314 199 58 15 5 2 24 41 44 50 52 25 4 10 16 19 2 0 0 0 0 0 0 0 0 0 0 2 0 0 0
31 91 127 105 107 115 69 126 221 268 193 319 237 147 187 121 40 81 40 49 9 13 40 16 2 0 0 0 0 0 0 0 0 0 0 0 0 0 0 0 0 0 0
CIN
-110 -113 -91 -63 -30 -12 -9 -43 -58 -20 -1 0 0 0 0 0 0 0 0 0 0 0 0 0 -2 -2 -4 -2 0 0 0 0 0 0 0 0 -13 -22 0 -13 -23 -11 -18
-89 -81 -80 -39 -22 -29 -60 -80 -67 -10 0 0 0 0 0 0 0 0 0 0 0 -1 0 0 0 0 0 0 0 0 0 0 0 0 0 -3 -7 0 0 0 0 0 -1
-58 -45 -30 -12 -53 -98 -146 -124 -83 -3 0 -4 0 0 0 0 0 0 0 0 -1 0 0 0 0 0 0 0 0 0 0 0 0 0 0 -3 -1 -4 -4 -2 0 -13 -4
-33 -16 -8 -3 -37 -57 -101 -154 -87 -8 0 -20 -11 -2 0 0 0 0 0 0 0 0 0 0 0 0 0 0 -1 0 0 -1 -2 -4 -12 -7 0 0 0 -6 0 -7 -11
-67 -18 -22 -61 -92 -55 -13 -2 -1 -7 -17 -21 -28 -11 -4 -8 0 0 0 0 0 0 0 0 0 -3 -3 -2 0 0 0 -7 0 -1 -7 -12 -4 0 -2 -12 -3 0 0
-193 -110 -43 0 -36 0 0 0 0 -1 -22 -26 -39 -23 -10 -9 -88 -108 -7 0 0 0 0 0 0 -10 -9 -45 -54 -52 -6 -4 0 -10 -53 -35 -33 -33 -4 -17 -29 0 -3
-168 -146 -57 -5 -23 -4 0 0 0 0 -2 -7 -12 -8 -10 -2 -106 -171 -133 0 0 0 0 0 0 -4 -36 -11 -12 0 -49 -15 -6 0 0 -12 -57 -53 -23 -18 -42 0 -6
-145 -30 -49 -115 -72 -10 0 0 0 0 0 0 0 0 0 0 -45 -111 -140 -21 0 0 0 -1 0 -1 -17 -65 -25 -16 -16 -1 -9 -10 -1 0 -3 -34 -35 -11 -1 0 -10
-212 -129 0 -18 -62 -12 0 0 0 0 0 0 0 0 0 0 -9 -49 -85 -21 -14 -1 0 0 0 0 -27 0 -4 -1 -23 0 -10 0 -62 -66 -31 -49 -13 -12 -2 -2 0
-277 -199 -64 -2 -18 -10 0 -33 0 0 0 0 0 0 -1 0 0 -24 -26 0 0 0 0 0 -17 -16 -18 -61 -34 0 0 0 -1 0 0 0 0 0 -55 -11 -6 -4 0
-70 -1 -40 0 -22 -21 -64 -77 -16 -7 -15 -13 -7 0 -4 -9 -5 -18 -2 0 -2 0 0 0 0 -66 -47 -42 0 0 -1 0 -6 0 -1 -3 -12 -44 -3 -37 -53 -10 -20
0 0 0 0 0 -53 -127 -32 -34 -64 -51 -70 -17 -19 -8 -2 -56 -77 -77 -39 -8 -2 0 -4 0 -13 -39 -62 -82 -82 -3 -29 0 0 0 -2 -3 -16 -20 -22 -3 -12 -12
-92 -3 -33 -90 -130 -66 -35 -112 -126 -106 -145 -164 -112 -53 -22 -12 -12 -39 -49 -44 -32 -9 -31 -12 -12 -51 -3 -29 -82 -47 -27 -1 -3 0 0 0 0 0 0 -5 -26 -2 -2
-71 -53 -53 -65 -91 -197 -15 0 0 -211 -170 -82 -90 -105 -59 -35 -39 -5 -4 -8 -14 0 0 0 0 -5 -2 -25 -37 -31 -24 0 0 0 -2 -4 -8 0 0 0 -1 -5 -20
-4 0 -107 -112 -129 -154 -163 0 0 0 0 0 0 0 0 0 0 0 -13 0 -1 0 0 0 0 0 0 0 -2 -3 -5 0 0 0 0 -4 -32 -22 -1 0 0 -7 -2
-65 0 0 0 0 0 0 0 0 0 0 0 0 0 0 0 0 -1 -7 0 -19 -28 -14 0 0 0 -4 -12 -10 -12 -4 -6 0 -3 -5 -17 -6 -3 -22 -4 -3 -2 0
-3 -7 0 0 0 0 0 0 0 -1 0 0 0 0 0 0 0 0 -4 -25 -34 -39 -4 -16 -5 -15 -26 -51 -48 -18 0 0 0 -1 0 -8 -3 0 0 0 0 0 0
0 0 0 0 0 0 0 0 0 0 0 0 -1 0 0 0 0 0 0 -57 -8 -47 -71 -1 -11 -26 -17 -14 -6 0 0 0 -1 -1 0 0 0 0 0 0 0 0 0
0 0 0 0 0 0 0 0 0 0 0 0 0 -2 0 -1 -1 0 0 -23 -10 -10 -2 0 -12 -6 -46 -4 0 0 0 -1 0 0 0 0 0 0 0 0 0 0 0
0 0 0 0 0 0 0 0 0 0 0 0 0 0 0 -1 0 0 0 0 -21 -16 -2 0 -5 -16 -11 0 0 0 0 0 0 0 0 -3 0 0 0 0 0 0 0
0 0 0 0 0 0 0 0 0 0 0 0 0 0 0 0 0 0 0 -3 -2 0 0 -5 -13 -2 0 0 -3 0 0 0 0 0 0 0 0 0 0 0 0 0 0
0 0 0 0 0 0 0 0 0 0 -1 0 -1 -9 0 -5 -1 -1 -1 0 -1 0 0 0 0 0 0 0 0 0 0 0 0 0 -1 -1 -1 0 0 0 0 0 0
0 0 0 -1 0 -4 -5 0 0 0 0 0 -2 -11 -4 0 0 -2 -1 -3 0 -7 0 0 0 0 -1 0 0 0 0 -11 -6 -8 -10 0 0 0 -1 0 0 0 0
0 0 -11 -5 -52 -19 -4 -9 0 -3 0 0 0 -6 -11 -3 -2 -17 0 0 -1 -2 0 -6 -3 0 0 0 0 0 0 0 0 0 0 0 0 0 0 0 0 0 0
-19 0 -1 -32 -9 -4 -2 0 0 0 0 0 0 -1 -2 -2 -22 -2 -14 -6 -8 -7 -2 -3 -2 -4 -1 0 0 0 0 0 0 0 0 0 0 0 0 0 0 0 0
0 -27 -11 -15 -9 -8 -4 -4 0 0 0 0 0 0 -1 -4 -7 -4 0 0 0 0 0 0 -1 -1 0 0 0 0 0 0 0 0 0 0 0 0 0 0 0 0 0
Wind_Speed
29 32 31 22 23 18 13 13 13 10 7 8 8 7 7 8 9 8 8 6 9 4 4 10 15 12 21 21 25 18 19 21 20 25 25 29 29 nan nan nan nan nan nan
19 25 25 26 26 22 17 15 10 7 6 4 4 6 8 10 11 9 7 7 7 8 9 9 7 10 10 9 16 15 15 17 19 19 25 26 nan nan nan nan nan nan nan
21 22 20 21 27 22 22 23 20 14 14 11 8 8 9 9 11 11 9 6 6 6 8 8 6 8 11 11 11 13 16 19 18 17 22 24 25 nan nan nan nan nan nan
29 29 29 26 21 17 19 24 23 20 17 18 15 11 12 14 13 11 13 13 9 7 7 8 7 7 7 9 12 14 16 17 17 17 23 23 24 26 28 nan nan nan nan
43 43 45 31 26 25 19 16 24 26 25 22 19 17 16 14 16 17 14 14 15 12 9 8 9 10 25 19 12 17 16 19 20 20 19 21 20 22 22 nan nan nan nan
50 58 49 26 20 23 24 19 18 26 27 25 24 20 19 15 24 19 13 15 12 13 14 10 8 16 12 14 nan nan 18 14 15 21 nan 20 21 23 23 nan nan nan nan
45 53 44 28 31 28 26 25 21 24 27 27 27 24 20 18 27 22 18 12 12 11 9 11 12 10 12 9 nan nan nan nan 19 16 18 19 nan 23 27 25 nan nan nan
31 24 34 46 39 35 31 25 24 20 28 30 28 26 23 20 31 29 24 18 15 12 12 14 12 12 18 nan 10 13 12 15 16 18 19 19 19 26 25 27 26 29 nan
38 30 29 39 48 34 36 34 30 23 30 29 28 24 24 21 31 32 29 19 18 16 16 18 19 18 22 nan 13 16 15 14 nan nan nan nan nan nan 28 33 30 nan nan
37 39 44 49 52 51 41 48 35 27 34 32 28 27 27 26 32 31 30 24 18 19 21 21 25 17 33 nan nan 23 21 17 15 nan nan nan nan nan nan nan nan 29 29
nan nan 50 67 77 71 62 59 37 33 37 32 29 28 28 28 29 38 32 22 18 21 21 21 24 33 nan nan nan 23 24 26 25 26 25 nan nan nan nan nan nan nan nan
nan nan nan nan 44 56 67 38 35 38 35 34 29 28 31 32 36 39 33 24 12 15 16 24 26 nan nan nan nan nan 35 nan 32 30 29 nan nan nan nan nan 30 nan nan
nan nan nan nan nan 37 33 38 37 36 36 34 30 31 32 30 29 28 nan nan nan nan 16 21 27 39 55 nan nan nan nan 30 29 32 32 31 32 30 33 37 nan nan nan
nan nan nan nan nan nan nan nan nan nan nan 35 nan nan nan nan 24 25 26 32 nan nan nan nan nan nan nan nan nan nan nan 29 28 30 30 30 34 nan 34 nan nan nan nan
nan nan nan nan nan nan nan nan nan nan nan nan nan nan nan nan nan nan nan nan 28 nan nan nan nan nan nan 37 36 36 32 30 27 29 29 29 32 nan 36 40 43 nan nan
nan nan nan nan nan nan nan nan nan nan nan nan nan nan nan nan nan nan nan nan nan nan nan nan nan nan nan nan 35 33 35 34 32 36 36 37 nan nan nan 47 44 42 42
nan nan nan nan nan nan nan nan nan nan nan nan nan nan nan nan nan nan nan nan nan nan nan nan nan nan nan nan nan nan nan nan nan nan nan nan nan nan nan nan nan nan nan
nan nan nan nan nan nan nan nan nan nan nan nan nan nan nan nan nan nan nan nan nan nan nan 30 33 nan nan nan nan nan nan nan nan nan nan nan nan nan nan nan nan nan nan
nan nan nan nan nan nan nan nan nan nan nan nan nan nan nan nan nan nan nan nan nan nan nan nan nan nan nan nan nan nan nan nan nan nan nan nan nan nan nan nan nan nan nan
nan nan nan nan nan nan nan nan nan nan nan 37 nan nan nan nan nan nan nan nan nan nan 37 39 nan nan 42 nan nan nan nan nan nan nan nan nan nan nan nan nan nan nan nan
nan nan nan nan nan nan nan nan nan nan nan 41 42 nan nan nan nan nan nan nan nan nan 40 nan nan nan nan nan nan nan nan nan nan nan nan nan nan nan nan nan nan nan nan
nan nan nan nan nan nan nan nan nan nan 37 35 nan nan nan nan nan nan nan nan nan nan nan nan nan nan nan nan nan nan nan nan nan nan nan nan nan nan nan nan nan nan nan
nan nan nan nan nan nan nan nan nan 33 32 34 38 nan nan nan nan nan nan nan nan nan nan nan nan nan nan nan nan nan nan nan nan nan nan nan nan nan nan nan nan nan nan
nan nan nan nan nan nan nan nan 26 nan 29 33 36 37 nan nan nan nan nan nan nan nan nan nan nan nan nan nan nan nan nan nan nan nan nan nan nan nan nan nan nan nan nan
nan 25 28 nan nan 22 22 22 25 27 27 30 31 30 nan nan nan nan nan nan nan nan nan nan nan nan nan nan nan nan nan nan nan nan nan nan nan nan nan nan nan nan nan
nan nan 25 26 24 23 nan 21 19 20 22 26 25 22 22 26 nan nan nan nan nan nan nan nan nan nan nan nan nan nan nan nan nan nan nan nan nan nan nan nan nan nan nan
Wind_Direction
318 315 315 318 314 309 328 329 323 322 341 16 13 3 352 349 345 0 6 355 328 328 278 257 266 232 256 265 263 264 264 266 271 270 279 286 290 nan nan nan nan nan nan
302 309 317 314 302 300 305 312 331 338 322 335 331 340 350 344 318 340 4 356 333 325 318 314 311 276 276 258 244 262 267 266 266 270 276 280 nan nan nan nan nan nan nan
288 289 280 297 297 299 299 297 302 307 314 321 335 327 310 297 309 307 299 304 322 300 301 303 305 303 274 260 270 262 268 266 268 270 274 271 270 nan nan nan nan nan nan
269 276 270 263 256 254 283 293 299 302 303 312 322 337 325 313 301 285 292 298 300 305 302 292 285 274 281 289 279 270 263 261 271 273 273 273 273 276 275 nan nan nan nan
255 250 238 248 250 259 254 266 289 290 299 305 313 326 326 317 316 328 302 294 289 285 283 272 280 257 242 241 254 276 265 269 270 268 269 274 272 276 278 nan nan nan nan
255 261 250 244 258 246 253 259 266 284 294 299 309 321 323 314 303 312 318 303 282 279 276 267 248 272 270 270 nan nan 249 273 275 279 nan 277 281 276 279 nan nan nan nan
251 271 293 264 260 251 242 255 262 277 291 292 300 310 316 314 303 312 319 336 302 300 290 288 294 283 290 299 nan nan nan nan 254 261 279 286 nan 283 282 281 nan nan nan
241 262 284 274 271 250 246 244 253 262 280 284 295 306 305 303 306 311 315 322 316 309 306 306 289 290 292 nan 288 294 287 287 282 273 272 271 277 286 292 276 276 273 nan
292 294 305 300 287 270 257 249 248 252 266 279 288 297 299 301 307 310 308 314 314 313 307 298 299 299 288 nan 285 285 277 282 nan nan nan nan nan nan 277 274 273 nan nan
266 263 267 274 268 263 241 249 240 245 259 271 286 300 300 304 305 305 308 307 311 298 298 310 296 286 296 nan nan 281 284 276 268 nan nan nan nan nan nan nan nan 276 272
nan nan 263 273 261 251 242 233 238 241 252 266 277 287 291 294 299 303 306 293 291 288 294 294 297 303 nan nan nan 273 276 276 277 272 279 nan nan nan nan nan nan nan nan
nan nan nan nan 201 219 223 212 223 236 247 257 265 273 281 290 303 301 303 315 298 290 300 292 293 nan nan nan nan nan 271 nan 275 273 274 nan nan nan nan nan 284 nan nan
nan nan nan nan nan 196 205 218 228 244 250 259 271 277 278 282 282 296 nan nan nan nan 296 279 264 296 296 nan nan nan nan 275 271 273 273 278 279 278 278 280 nan nan nan
nan nan nan nan nan nan nan nan nan nan nan 257 nan nan nan nan 279 279 281 294 nan nan nan nan nan nan nan nan nan nan nan 269 268 271 272 270 274 nan 285 nan nan nan nan
nan nan nan nan nan nan nan nan nan nan nan nan nan nan nan nan nan nan nan nan 283 nan nan nan nan nan nan 269 270 272 268 263 265 268 269 266 271 nan 281 282 283 nan nan
nan nan nan nan nan nan nan nan nan nan nan nan nan nan nan nan nan nan nan nan nan nan nan nan nan nan nan nan 260 258 259 258 262 267 262 261 nan nan nan 285 275 272 281
nan nan nan nan nan nan nan nan nan nan nan nan nan nan nan nan nan nan nan nan nan nan nan nan nan nan nan nan nan nan nan nan nan nan nan nan nan nan nan nan nan nan nan
nan nan nan nan nan nan nan nan nan nan nan nan nan nan nan nan nan nan nan nan nan nan nan 259 269 nan nan nan nan nan nan nan nan nan nan nan nan nan nan nan nan nan nan
nan nan nan nan nan nan nan nan nan nan nan nan nan nan nan nan nan nan nan nan nan nan nan nan nan nan nan nan nan nan nan nan nan nan nan nan nan nan nan nan nan nan nan
nan nan nan nan nan nan nan nan nan nan nan 272 nan nan nan nan nan nan nan nan nan nan 268 264 nan nan 256 nan nan nan nan nan nan nan nan nan nan nan nan nan nan nan nan
nan nan nan nan nan nan nan nan nan nan nan 282 283 nan nan nan nan nan nan nan nan nan 268 nan nan nan nan nan nan nan nan nan nan nan nan nan nan nan nan nan nan nan nan
nan nan nan nan nan nan nan nan nan nan 282 282 nan nan nan nan nan nan nan nan nan nan nan nan nan nan nan nan nan nan nan nan nan nan nan nan nan nan nan nan nan nan nan
nan nan nan nan nan nan nan nan nan 283 291 286 285 nan nan nan nan nan nan nan nan nan nan nan nan nan nan nan nan nan nan nan nan nan nan nan nan nan nan nan nan nan nan
nan nan nan nan nan nan nan nan 282 nan 289 290 293 290 nan nan nan nan nan nan nan nan nan nan nan nan nan nan nan nan nan nan nan nan nan nan nan nan nan nan nan nan nan
nan 269 271 nan nan 283 284 283 286 287 286 295 293 292 nan nan nan nan nan nan nan nan nan nan nan nan nan nan nan nan nan nan nan nan nan nan nan nan nan nan nan nan nan
nan nan 275 276 274 277 nan 282 284 294 297 292 295 295 281 271 nan nan nan nan nan nan nan nan nan nan nan nan nan nan nan nan nan nan nan nan nan nan nan nan nan nan nan